Sigfox identifier Datetime Temperature Humidity SNR
003BFE9D 2019-02-20 13:57:07 20.9 24 22.7
003BFE9D 2019-02-20 13:24:16 20.9 25 22.7
003BFE9D 2019-02-20 12:51:30 20.8 25 21.7
003BFE9D 2019-02-20 12:18:44 20.8 25 21.7
003BFE9D 2019-02-20 11:45:57 20.8 26 21.8
003BFE9D 2019-02-20 11:13:09 20.8 26 20.4
003BFE9D 2019-02-20 10:40:22 20.8 26 20.4
003BFE9D 2019-02-20 10:07:36 20.8 26 18.4
003BFE9D 2019-02-20 09:34:49 20.8 27 18.5
003BFE9D 2019-02-20 09:02:02 20.7 27 15.1
003BFE9D 2019-02-20 08:29:17 20.7 27 14.9
003BFE9D 2019-02-20 07:56:27 20.7 27 15.1
003BFE9D 2019-02-20 07:23:43 20.7 27 15.1
003BFE9D 2019-02-20 06:50:54 20.8 27 14.8
003BFE9D 2019-02-20 06:18:08 20.8 27 14.8
003BFE9D 2019-02-20 05:45:21 20.8 27 14.7
003BFE9D 2019-02-20 05:12:34 20.8 27 14.8
003BFE9D 2019-02-20 04:39:48 20.8 27 14.8
003BFE9D 2019-02-20 04:07:01 20.8 27 14.6
003BFE9D 2019-02-20 03:34:14 20.8 27 14.3
003BFE9D 2019-02-20 03:01:27 20.8 27 14.2
003BFE9D 2019-02-20 02:28:44 20.8 27 14.2
003BFE9D 2019-02-20 01:55:53 20.9 27 14
003BFE9D 2019-02-20 01:23:05 20.9 27 14.2
003BFE9D 2019-02-20 00:50:19 20.9 27 14.2
003BFE9D 2019-02-20 00:17:32 20.9 27 18.2
003BFE9D 2019-02-19 23:44:44 20.9 27 18.2
003BFE9D 2019-02-19 23:11:57 20.9 27 20.2
003BFE9D 2019-02-19 22:39:10 20.9 27 20.3
003BFE9D 2019-02-19 22:06:23 20.9 26 20.3
003BFE9D 2019-02-19 21:33:36 20.9 26 20.3
003BFE9D 2019-02-19 21:00:49 21 26 20.3
003BFE9D 2019-02-19 20:28:02 21 26 20.4
003BFE9D 2019-02-19 19:55:15 21 27 20.4
003BFE9D 2019-02-19 19:22:32 21 26 20.4
003BFE9D 2019-02-19 18:49:40 21.1 27 20.5
003BFE9D 2019-02-19 18:16:52 21.1 27 20.5
003BFE9D 2019-02-19 17:44:06 21.1 27 20.6
003BFE9D 2019-02-19 17:11:19 21.1 27 20.7
003BFE9D 2019-02-19 16:38:32 21.1 27 20.7
003BFE9D 2019-02-19 16:05:45 21.1 26 20.8
003BFE9D 2019-02-19 15:00:10 21.1 26 20.8
003BFE9D 2019-02-19 14:27:25 21.1 26 20.8
003BFE9D 2019-02-19 13:54:36 21.1 26 20.9
003BFE9D 2019-02-19 13:21:54 21 26 21
003BFE9D 2019-02-19 12:49:03 21 26 21
003BFE9D 2019-02-19 12:16:19 21 26 20.9
003BFE9D 2019-02-19 11:43:31 21.2 25 21
003BFE9D 2019-02-19 11:42:15 21 25 21
003BFE9D 2019-02-19 11:09:28 21 25 21.1
003BFE9D 2019-02-19 10:36:41 20.9 25 19.5
003BFE9D 2019-02-19 10:03:57 20.9 25 19.6
003BFE9D 2019-02-19 09:31:08 20.9 25 17.1
003BFE9D 2019-02-19 08:58:25 20.8 25 16.8
003BFE9D 2019-02-19 08:25:36 20.8 24 16.8
003BFE9D 2019-02-19 07:52:47 20.8 24 16.8
003BFE9D 2019-02-19 07:20:00 20.8 24 16.7
003BFE9D 2019-02-19 06:47:13 20.8 24 16.5
003BFE9D 2019-02-19 06:14:26 20.8 24 16.4
003BFE9D 2019-02-19 05:41:39 20.8 24 19.1
003BFE9D 2019-02-19 05:08:52 20.8 24 20.8
003BFE9D 2019-02-19 04:36:06 20.8 24 20.7
003BFE9D 2019-02-19 04:03:21 20.8 24 20.5
003BFE9D 2019-02-19 03:30:33 20.8 24 20.4
003BFE9D 2019-02-19 02:57:49 20.8 23 20.4
003BFE9D 2019-02-19 02:24:59 20.8 23 20.6
003BFE9D 2019-02-19 01:52:13 20.8 23 20.5
003BFE9D 2019-02-19 01:19:26 20.9 23 20.5
003BFE9D 2019-02-19 00:46:39 20.8 23 20.5
003BFE9D 2019-02-19 00:13:53 20.8 23 20.5
003BFE9D 2019-02-18 23:41:07 20.8 23 20.5
003BFE9D 2019-02-18 23:08:20 20.8 23 20.6
003BFE9D 2019-02-18 22:35:33 20.8 22 20.6
003BFE9D 2019-02-18 22:02:47 20.8 22 20.7
003BFE9D 2019-02-18 21:30:02 20.8 22 20.8
003BFE9D 2019-02-18 20:57:14 20.9 22 21
003BFE9D 2019-02-18 20:24:27 20.9 22 21.1
003BFE9D 2019-02-18 19:51:40 20.9 22 21.2
003BFE9D 2019-02-18 19:18:53 20.9 22 21.3
003BFE9D 2019-02-18 18:46:08 20.9 22 21.4
003BFE9D 2019-02-18 18:13:22 21 21 21.5
003BFE9D 2019-02-18 17:07:49 21 21 21.6
003BFE9D 2019-02-18 16:35:03 21 21 21.7
003BFE9D 2019-02-18 16:02:19 21 21 21.8
003BFE9D 2019-02-18 15:29:29 21 21 20.6
003BFE9D 2019-02-18 14:56:43 21.1 21 19
003BFE9D 2019-02-18 14:23:58 21.1 21 19.3
003BFE9D 2019-02-18 13:51:14 21.1 20 19.4
003BFE9D 2019-02-18 13:18:25 21.2 20 19.6
003BFE9D 2019-02-18 12:45:37 21.3 20 19.8
003BFE9D 2019-02-18 12:12:49 21.3 20 19.9
003BFE9D 2019-02-18 11:40:01 21.2 19 20
003BFE9D 2019-02-18 11:07:13 21.2 19 20.2
003BFE9D 2019-02-18 10:34:27 21.2 19 20.3
003BFE9D 2019-02-18 10:01:40 21.1 19 20.5
003BFE9D 2019-02-18 09:28:53 21.1 19 20.7
003BFE9D 2019-02-18 08:56:06 21.3 19 20.8
003BFE9D 2019-02-18 08:54:50 21.1 19 20.9
003BFE9D 2019-02-18 08:22:02 21 19 20.9
003BFE9D 2019-02-18 07:49:15 21 19 21
003BFE9D 2019-02-18 07:16:27 21 19 21
003BFE9D 2019-02-18 06:43:41 21 19 21.1
003BFE9D 2019-02-18 06:10:53 21 19 21.2
003BFE9D 2019-02-18 05:38:05 21 19 21.3
003BFE9D 2019-02-18 05:05:18 21 19 21.3
003BFE9D 2019-02-18 04:32:32 21 19 21.4
003BFE9D 2019-02-18 03:59:45 21 19 21.5
003BFE9D 2019-02-18 03:26:59 21 19 21.5
003BFE9D 2019-02-18 02:54:12 21 19 21.6
003BFE9D 2019-02-18 02:21:25 21 20 21.8
003BFE9D 2019-02-18 01:48:38 21 20 21.8
003BFE9D 2019-02-18 01:15:52 21 20 21.8
003BFE9D 2019-02-18 00:43:05 21 20 21.8
003BFE9D 2019-02-18 00:10:18 21.1 20 21.9
003BFE9D 2019-02-17 23:37:29 21.1 20 21.8
003BFE9D 2019-02-17 23:04:43 21 20 21.9
003BFE9D 2019-02-17 22:31:56 21.1 20 22
003BFE9D 2019-02-17 21:59:09 21.1 20 21.9
003BFE9D 2019-02-17 21:26:27 21.1 20 21.9
003BFE9D 2019-02-17 20:53:36 21.1 20 21.8
003BFE9D 2019-02-17 20:20:49 21.1 20 21.7
003BFE9D 2019-02-17 19:48:02 21.1 21 21.7
003BFE9D 2019-02-17 19:15:14 21.1 21 21.7
003BFE9D 2019-02-17 18:42:27 21.1 21 21.6
003BFE9D 2019-02-17 18:09:41 21.1 21 21.7
003BFE9D 2019-02-17 17:36:53 21.1 21 21.7
003BFE9D 2019-02-17 17:04:07 21.1 21 21.6
003BFE9D 2019-02-17 16:31:20 21.1 21 21.7
003BFE9D 2019-02-17 15:58:33 21.1 21 21.7
003BFE9D 2019-02-17 15:25:46 21.2 21 21.8
003BFE9D 2019-02-17 14:52:59 21.1 21 21.8
003BFE9D 2019-02-17 14:20:12 21.2 21 21.8
003BFE9D 2019-02-17 13:47:24 21.2 21 21.9
003BFE9D 2019-02-17 13:14:37 21.2 22 21.9
003BFE9D 2019-02-17 12:41:50 21.2 22 21.9
003BFE9D 2019-02-17 12:09:01 21.1 22 21.9
003BFE9D 2019-02-17 11:36:16 21.1 22 21.9
003BFE9D 2019-02-17 11:03:28 21.1 22 21.9
003BFE9D 2019-02-17 10:30:40 21.1 22 21.9
003BFE9D 2019-02-17 09:57:54 21.1 22 21.9
003BFE9D 2019-02-17 09:25:06 21.1 22 21.9
003BFE9D 2019-02-17 08:52:19 21.1 22 21.8
003BFE9D 2019-02-17 08:19:33 21.1 22 21.9
003BFE9D 2019-02-17 07:46:47 21.1 22 21.9
003BFE9D 2019-02-17 07:14:01 21.1 23 22.1
003BFE9D 2019-02-17 06:41:14 21.2 23 22.2
003BFE9D 2019-02-17 06:08:28 21.4 23 22.2
003BFE9D 2019-02-17 06:07:11 21.1 23 22.3
003BFE9D 2019-02-17 05:34:24 21.2 23 22.3
003BFE9D 2019-02-17 05:01:38 21.2 23 22.4
003BFE9D 2019-02-17 04:28:52 21.2 23 22.4
003BFE9D 2019-02-17 03:56:05 21.2 23 22.4
003BFE9D 2019-02-17 03:23:18 21.2 24 23.1
003BFE9D 2019-02-17 02:50:32 21.2 24 23.1
003BFE9D 2019-02-17 02:17:44 21.2 24 23.1
003BFE9D 2019-02-17 01:44:57 21.2 24 23.1
003BFE9D 2019-02-17 01:12:10 21.2 24 23.1
003BFE9D 2019-02-17 00:39:22 21.2 24 23
003BFE9D 2019-02-17 00:06:35 21.2 24 23
003BFE9D 2019-02-16 23:33:48 21.2 25 23
003BFE9D 2019-02-16 23:01:00 21.2 25 23
003BFE9D 2019-02-16 22:28:14 21.2 25 22.9
003BFE9D 2019-02-16 21:55:27 21.3 25 22.9
003BFE9D 2019-02-16 21:22:40 21.2 25 22.9
003BFE9D 2019-02-16 20:49:53 21.2 25 23
003BFE9D 2019-02-16 20:17:05 21.2 25 23
003BFE9D 2019-02-16 19:44:18 21.2 25 23
003BFE9D 2019-02-16 19:11:31 21.2 25 23.1
003BFE9D 2019-02-16 18:38:44 21.2 25 23
003BFE9D 2019-02-16 18:05:57 21.3 25 23
003BFE9D 2019-02-16 17:33:09 21.3 25 22.9
003BFE9D 2019-02-16 17:00:21 21.3 25 22.9
003BFE9D 2019-02-16 16:27:33 21.3 25 22.9
003BFE9D 2019-02-16 15:54:45 21.3 25 22.8
003BFE9D 2019-02-16 15:21:58 21.3 25 22.7
003BFE9D 2019-02-16 14:49:10 21.3 25 22.7
003BFE9D 2019-02-16 14:16:23 21.3 25 22.7
003BFE9D 2019-02-16 13:43:37 21.3 25 21.8
003BFE9D 2019-02-16 13:10:50 21.3 25 21.8
003BFE9D 2019-02-16 12:38:04 21.3 25 21.7
003BFE9D 2019-02-16 12:05:17 21.3 25 21.8
003BFE9D 2019-02-16 11:32:29 21.2 25 21.9
003BFE9D 2019-02-16 10:59:43 21.2 25 21.8
003BFE9D 2019-02-16 10:26:55 21.2 25 22.7
003BFE9D 2019-02-16 09:54:07 21.2 25 22.6
003BFE9D 2019-02-16 09:21:19 21.2 25 22.7
003BFE9D 2019-02-16 08:48:32 21.2 25 22.8
003BFE9D 2019-02-16 08:15:47 21.2 25 22.9
003BFE9D 2019-02-16 07:42:58 21.3 25 22.9
003BFE9D 2019-02-16 07:10:10 21.2 25 22.8
003BFE9D 2019-02-16 06:37:23 21.2 25 22.7
003BFE9D 2019-02-16 06:04:35 21.3 25 22.6
003BFE9D 2019-02-16 05:31:47 21.3 25 22.5
003BFE9D 2019-02-16 04:58:59 21.3 25 22.5
003BFE9D 2019-02-16 04:26:12 21.3 25 22.5
003BFE9D 2019-02-16 03:53:25 21.3 25 22.4
003BFE9D 2019-02-16 03:20:37 21.5 25 22.4
003BFE9D 2019-02-16 03:19:21 21.3 25 22.4
003BFE9D 2019-02-16 02:46:34 21.3 25 22.5
003BFE9D 2019-02-16 02:13:46 21.3 25 22.4
003BFE9D 2019-02-16 01:40:59 21.3 25 22.5
003BFE9D 2019-02-16 01:08:11 21.4 25 22.4
003BFE9D 2019-02-16 00:35:24 21.4 25 22.4
003BFE9D 2019-02-16 00:02:37 21.4 25 22.5
003BFE9D 2019-02-15 23:29:51 21.4 25 22.4
003BFE9D 2019-02-15 22:57:02 21.5 25 22.3
003BFE9D 2019-02-15 22:24:15 21.5 25 22.2
003BFE9D 2019-02-15 21:51:27 21.5 25 22.2
003BFE9D 2019-02-15 21:18:39 21.5 25 21.2
003BFE9D 2019-02-15 20:45:52 21.5 25 21.2
003BFE9D 2019-02-15 20:13:04 21.6 25 21
003BFE9D 2019-02-15 19:40:17 21.6 25 20.7
003BFE9D 2019-02-15 19:07:30 21.7 25 20.6
003BFE9D 2019-02-15 18:34:43 21.7 25 20.7
003BFE9D 2019-02-15 18:01:56 21.7 25 20.8
003BFE9D 2019-02-15 17:29:09 21.7 25 20.9
003BFE9D 2019-02-15 16:56:21 21.7 25 20.9
003BFE9D 2019-02-15 16:23:34 21.6 24 20.9
003BFE9D 2019-02-15 15:50:46 21.7 24 21.9
003BFE9D 2019-02-15 15:18:00 21.7 24 22.1
003BFE9D 2019-02-15 14:45:13 21.6 24 22.1
003BFE9D 2019-02-15 14:12:26 21.6 24 22.2
003BFE9D 2019-02-15 13:39:38 21.6 24 22.2
003BFE9D 2019-02-15 13:06:51 21.6 24 22.1
003BFE9D 2019-02-15 12:34:03 21.5 24 22
003BFE9D 2019-02-15 12:01:16 21.5 24 21.9
003BFE9D 2019-02-15 11:28:28 21.5 25 21.9
003BFE9D 2019-02-15 10:55:41 21.5 25 21.9
003BFE9D 2019-02-15 10:22:53 21.5 25 21.8
003BFE9D 2019-02-15 09:50:05 21.4 25 21.8
003BFE9D 2019-02-15 09:17:17 21.4 25 21.9
003BFE9D 2019-02-15 08:44:29 21.4 25 22.1
003BFE9D 2019-02-15 08:11:41 21.4 25 22.2
003BFE9D 2019-02-15 07:38:54 21.3 25 22.2
003BFE9D 2019-02-15 07:06:07 21.4 25 22.2
003BFE9D 2019-02-15 06:33:19 21.4 25 22.2
003BFE9D 2019-02-15 06:00:31 21.4 25 22.2
003BFE9D 2019-02-15 05:27:44 21.4 25 22.2
003BFE9D 2019-02-15 04:54:57 21.4 25 22
003BFE9D 2019-02-15 04:22:09 21.4 25 21.9
003BFE9D 2019-02-15 03:49:21 21.4 25 21.7
003BFE9D 2019-02-15 03:16:33 21.4 25 21.6
003BFE9D 2019-02-15 02:43:45 21.4 25 21.7
003BFE9D 2019-02-15 02:10:58 21.4 25 20.4
003BFE9D 2019-02-15 01:38:10 21.4 25 20.2
003BFE9D 2019-02-15 01:05:23 21.4 25 20.4
003BFE9D 2019-02-15 00:32:34 21.7 25 20.5
003BFE9D 2019-02-15 00:31:19 21.5 25 20.2
003BFE9D 2019-02-14 23:58:30 21.5 25 20.1
003BFE9D 2019-02-14 23:25:43 21.5 25 20.1
003BFE9D 2019-02-14 22:52:54 21.5 25 20.3
003BFE9D 2019-02-14 22:20:07 21.5 25 20.2
003BFE9D 2019-02-14 21:47:20 21.5 25 20.2
003BFE9D 2019-02-14 21:14:32 21.5 24 20.2
003BFE9D 2019-02-14 20:41:43 21.6 24 20.1
003BFE9D 2019-02-14 20:08:55 21.7 24 20
003BFE9D 2019-02-14 19:36:08 21.7 24 20
003BFE9D 2019-02-14 19:03:21 21.8 24 19.9
003BFE9D 2019-02-14 18:30:33 21.8 24 19.7
003BFE9D 2019-02-14 17:57:45 21.8 24 19.8
003BFE9D 2019-02-14 17:24:57 21.8 24 19.9
003BFE9D 2019-02-14 16:52:09 21.9 24 19.9
003BFE9D 2019-02-14 16:19:22 22 25 20.2
003BFE9D 2019-02-14 15:46:34 21.9 24 20.4
003BFE9D 2019-02-14 15:13:46 21.9 24 20.6
003BFE9D 2019-02-14 14:40:58 21.8 24 20.7
003BFE9D 2019-02-14 14:08:10 21.6 24 20.9
003BFE9D 2019-02-14 13:35:21 21.5 24 21.1
003BFE9D 2019-02-14 13:02:34 21.5 24 21.1
003BFE9D 2019-02-14 12:29:45 21.3 23 21.1
003BFE9D 2019-02-14 11:56:58 21.3 24 21.1
003BFE9D 2019-02-14 11:24:11 21.2 24 20.8
003BFE9D 2019-02-14 10:51:23 21.1 24 21
003BFE9D 2019-02-14 10:18:35 21 24 21.2
003BFE9D 2019-02-14 09:45:48 21 24 21.3
003BFE9D 2019-02-14 09:13:01 20.9 24 21.2
003BFE9D 2019-02-14 08:40:14 20.7 24 21.2
003BFE9D 2019-02-14 08:07:26 20.7 24 21.1
003BFE9D 2019-02-14 07:34:38 20.8 25 21.2
003BFE9D 2019-02-14 07:01:49 20.8 25 21.3
003BFE9D 2019-02-14 06:29:01 20.8 25 21.2
003BFE9D 2019-02-14 05:56:14 20.8 25 21.1
003BFE9D 2019-02-14 05:23:26 20.8 25 21
003BFE9D 2019-02-14 04:50:41 20.8 25 21
003BFE9D 2019-02-14 04:17:53 20.8 25 20.8
003BFE9D 2019-02-14 03:45:05 20.8 25 20.6
003BFE9D 2019-02-14 03:12:17 20.8 25 20.7
003BFE9D 2019-02-14 02:39:29 20.8 25 20.5
003BFE9D 2019-02-14 02:06:42 20.8 25 20.5
003BFE9D 2019-02-14 01:33:54 20.8 25 20.3
003BFE9D 2019-02-14 01:01:07 20.8 25 20.1
003BFE9D 2019-02-14 00:28:18 20.9 25 19.8
003BFE9D 2019-02-13 23:55:30 20.9 25 19.6
003BFE9D 2019-02-13 23:22:42 20.9 25 19.7
003BFE9D 2019-02-13 22:49:55 20.9 25 19.5
003BFE9D 2019-02-13 22:17:08 21 25 19.3
003BFE9D 2019-02-13 21:44:23 21.3 25 19.5
003BFE9D 2019-02-13 21:43:05 21 25 19.3
003BFE9D 2019-02-13 21:10:18 21.1 25 19.1
003BFE9D 2019-02-13 20:37:31 21.2 25 19.2
003BFE9D 2019-02-13 20:04:43 21.2 25 19.5
003BFE9D 2019-02-13 19:31:56 21.3 25 19.7
003BFE9D 2019-02-13 18:59:08 21.4 25 20
003BFE9D 2019-02-13 18:26:21 21.5 26 19.8
003BFE9D 2019-02-13 17:53:34 21.5 26 20
003BFE9D 2019-02-13 17:20:48 21.4 26 20.3
003BFE9D 2019-02-13 16:48:02 21.4 27 20.3
003BFE9D 2019-02-13 16:15:17 21.3 26 20.5
003BFE9D 2019-02-13 15:42:29 21.2 25 20.4
003BFE9D 2019-02-13 15:09:43 21.2 25 20.6
003BFE9D 2019-02-13 14:36:57 21.1 25 20.8
003BFE9D 2019-02-13 14:04:13 21.2 24 21.1
003BFE9D 2019-02-13 13:31:24 21.2 24 21.2
003BFE9D 2019-02-13 12:58:37 21.2 25 21.1
003BFE9D 2019-02-13 12:25:50 21.1 24 21.2
003BFE9D 2019-02-13 11:53:05 21.1 25 21.4
003BFE9D 2019-02-13 11:20:20 21 25 21.5
003BFE9D 2019-02-13 10:47:33 21 24 21.7
003BFE9D 2019-02-13 10:14:43 20.9 23 21.7
003BFE9D 2019-02-13 09:41:57 20.8 23 21.8
003BFE9D 2019-02-13 09:09:09 20.8 22 22
003BFE9D 2019-02-13 08:36:23 20.7 21 21.9
003BFE9D 2019-02-13 08:03:36 20.8 20 22.1
003BFE9D 2019-02-13 07:30:49 20.7 19 22.1
003BFE9D 2019-02-13 06:58:03 20.7 19 22
003BFE9D 2019-02-13 06:25:16 20.8 19 22
003BFE9D 2019-02-13 05:52:29 20.8 19 21.7
003BFE9D 2019-02-13 05:19:43 20.8 19 21.6
003BFE9D 2019-02-13 04:46:56 20.8 19 21.7
003BFE9D 2019-02-13 04:14:08 20.8 19 21.5
003BFE9D 2019-02-13 03:41:21 20.8 19 21.3
003BFE9D 2019-02-13 03:08:32 20.8 19 21.3
003BFE9D 2019-02-13 02:35:45 20.8 18 21.1
003BFE9D 2019-02-13 02:02:56 20.8 18 21
003BFE9D 2019-02-13 01:30:09 20.8 18 20.9
003BFE9D 2019-02-13 00:57:21 20.9 18 20.7
003BFE9D 2019-02-13 00:24:34 20.9 19 20.4
003BFE9D 2019-02-12 23:51:46 20.9 19 20
003BFE9D 2019-02-12 23:18:58 21 19 19.8
003BFE9D 2019-02-12 22:46:10 21 19 19.8
003BFE9D 2019-02-12 21:40:33 21.1 20 19.4
003BFE9D 2019-02-12 21:07:46 21.2 21 19
003BFE9D 2019-02-12 20:34:58 21.3 21 18.8
003BFE9D 2019-02-12 20:02:10 21.4 20 18.8
003BFE9D 2019-02-12 19:29:23 21.5 20 18.6
003BFE9D 2019-02-12 18:56:35 21.7 19 18.4
003BFE9D 2019-02-12 18:55:19 21.5 19 18
003BFE9D 2019-02-12 18:22:31 21.6 19 17.9
003BFE9D 2019-02-12 17:49:43 21.7 19 17.7
003BFE9D 2019-02-12 17:16:57 21.8 19 17.2
003BFE9D 2019-02-12 16:44:09 22 18 17.5
003BFE9D 2019-02-12 16:11:19 22.2 18 17.6
003BFE9D 2019-02-12 15:38:33 22.3 18 17.1
003BFE9D 2019-02-12 15:05:45 22.2 19 16.6
003BFE9D 2019-02-12 14:32:57 21.9 19 17
003BFE9D 2019-02-12 14:00:09 21.4 19 17.1
003BFE9D 2019-02-12 13:27:21 21.4 19 17.4
003BFE9D 2019-02-12 12:54:34 21.4 19 17.4
003BFE9D 2019-02-12 12:21:45 21.3 20 17.7
003BFE9D 2019-02-12 11:48:58 21.3 20 17.7
003BFE9D 2019-02-12 11:16:09 21.3 21 17.5
003BFE9D 2019-02-12 10:43:21 21.3 21 17.7
003BFE9D 2019-02-12 10:10:33 21.1 22 17.8
003BFE9D 2019-02-12 09:37:46 21 22 17.8
003BFE9D 2019-02-12 09:04:57 21 23 17.9
003BFE9D 2019-02-12 08:32:10 20.8 23 17.9
003BFE9D 2019-02-12 07:59:23 20.8 24 18
003BFE9D 2019-02-12 07:26:35 20.8 25 18.1
003BFE9D 2019-02-12 06:53:49 20.8 26 17.8
003BFE9D 2019-02-12 06:20:58 20.8 26 17.6
003BFE9D 2019-02-12 05:48:11 20.9 26 17.8
003BFE9D 2019-02-12 05:15:22 20.9 26 17.9
003BFE9D 2019-02-12 04:42:34 20.9 26 17.9
003BFE9D 2019-02-12 04:09:45 20.9 27 17.9
003BFE9D 2019-02-12 03:36:57 20.9 27 17.9
003BFE9D 2019-02-12 03:04:09 20.9 27 17.8
003BFE9D 2019-02-12 02:31:20 20.9 27 17.7
003BFE9D 2019-02-12 01:58:30 20.9 27 17.8
003BFE9D 2019-02-12 01:25:41 20.9 27 18
003BFE9D 2019-02-12 00:52:52 20.9 27 17.5
003BFE9D 2019-02-12 00:20:06 21 27 17.5
003BFE9D 2019-02-11 23:47:14 21 27 17.3
003BFE9D 2019-02-11 23:14:27 21 27 17.5
003BFE9D 2019-02-11 22:41:38 21.1 27 17
003BFE9D 2019-02-11 22:08:50 21.1 27 17.1
003BFE9D 2019-02-11 21:36:01 21.2 27 17.4
003BFE9D 2019-02-11 21:03:11 21.3 27 17.2
003BFE9D 2019-02-11 20:30:22 21.3 27 17.4
003BFE9D 2019-02-11 19:57:32 21.5 27 17
003BFE9D 2019-02-11 19:24:43 21.5 27 17.3
003BFE9D 2019-02-11 18:51:54 21.7 27 17.3
003BFE9D 2019-02-11 18:19:05 21.8 27 17.3
003BFE9D 2019-02-11 17:46:15 22 28 16.6
003BFE9D 2019-02-11 17:13:30 22 28 16.7
003BFE9D 2019-02-11 16:40:39 22.2 28 19
003BFE9D 2019-02-11 16:07:47 22.2 33 0